[[{"header":{"parameterUnit":"m.s-1","parameterCategory":2,"la1":30.2991,"la2":30.254,"lo1":-89.0895,"lo2":-89.0444,"dy":0.0017,"dx":0.0017,"nx":28,"ny":28,"refTime":"2025-08-04T09:00:00:Z","depth":"0","parameterNumber":2,"parameterNumberName":"U-component_of_CURRENTS"},"data":[0,0,0,0,0,0,0,0,0,0,0,0,0,0,0,0,0,0,0,0,0,0,0,0,0,0,0,0,0,0,0,0,0,0,0,0,0,0,0,0,0,0,0,0,0,0,0,0,0,0,0,0,0,0,0,0,0,0,-0.3956,-0.3959,0,-0.4144,-0.4146,-0.4147,-0.4098,-0.4095,-0.4093,-0.409,-0.3855,-0.3851,-0.3847,0,0,0,0,0,0,0,0,0,0,0,0,0,-0.3519,-0.3526,-0.3955,-0.3959,-0.3962,-0.4144,-0.4146,-0.4147,-0.4099,-0.4095,-0.4092,-0.4089,-0.3856,-0.3852,-0.3847,0,0,0,0,0,0,0,0,0,0,0,0,0,-0.3697,-0.3529,-0.3955,-0.3969,-0.3973,-0.4144,-0.4146,-0.4147,-0.4099,-0.4095,-0.4091,-0.4088,-0.3858,-0.3852,-0.3846,-0.3889,0,0,-0.3829,-0.3826,0,0,0,0,0,0,0,0,-0.3687,-0.3711,-0.3963,-0.3968,-0.3973,-0.4104,-0.3906,-0.4044,-0.41,-0.4038,-0.409,-0.4086,-0.391,-0.39,-0.3932,-0.3878,-0.3868,-0.3828,-0.3825,-0.3822,-0.3821,0,0,0,0,0,0,0,-0.3674,-0.3703,-0.4018,-0.3968,-0.3974,-0.3956,-0.3975,-0.3933,-0.3976,-0.4043,-0.4043,-0.4085,-0.3907,-0.3939,-0.3925,-0.3865,-0.3828,-0.3823,-0.382,-0.3817,-0.384,-0.3844,0,0,0,0,0,0,-0.3684,-0.3693,-0.4012,-0.4025,-0.3831,-0.3968,-0.3989,-0.4056,-0.3986,-0.3979,-0.4089,-0.4083,-0.395,-0.3932,-0.3916,-0.3908,-0.3822,-0.3817,-0.3814,-0.3836,-0.3841,-0.3845,0,0,0,0,0,0,-0.3674,-0.3712,-0.4004,-0.3869,-0.3907,-0.3981,-0.4056,-0.4062,-0.4079,-0.4027,-0.4008,-0.4097,-0.3947,-0.3924,-0.3898,-0.3899,-0.3814,-0.3809,-0.3831,-0.3837,-0.3843,-0.3923,0,0,0,0,0,0,-0.3661,-0.3707,-0.3745,-0.3872,-0.3916,-0.4101,-0.4061,-0.4069,-0.4118,-0.4111,-0.4029,-0.4005,-0.3942,-0.3907,-0.3892,-0.3889,-0.3805,-0.3826,-0.3834,-0.3841,-0.3915,-0.3931,-0.3944,0,0,0,0,0,-0.3645,-0.3716,-0.3746,-0.3785,-0.3971,-0.4104,-0.4124,-0.4152,-0.4122,-0.4146,-0.4104,-0.4006,-0.3944,-0.3906,-0.3887,-0.3882,-0.3822,-0.3831,-0.384,-0.3908,-0.3928,-0.3944,0,0,0,0,0,0,-0.3537,-0.3724,-0.3757,-0.3879,-0.3984,-0.41,-0.4129,-0.416,-0.4158,-0.4123,-0.4051,-0.4028,-0.4015,-0.3963,-0.3923,-0.3926,-0.387,-0.3876,-0.3928,-0.3946,-0.396,-0.3833,-0.38,0,0,0,0,0,-0.3544,-0.3634,-0.3803,-0.3886,-0.3944,-0.4036,-0.4088,-0.4121,-0.4155,-0.4151,-0.4119,-0.4076,-0.4051,-0.4005,-0.3989,-0.3972,-0.3847,-0.3968,-0.3982,-0.3994,-0.3889,-0.3779,-0.377,-0.3875,-0.3875,-0.3875,0,0,-0.3516,-0.3634,-0.3679,-0.3867,-0.3937,-0.3997,-0.4052,-0.4139,-0.4145,-0.4119,-0.4103,-0.413,-0.4071,-0.4071,-0.4056,-0.4007,-0.3915,-0.4006,-0.4015,-0.39,-0.3787,-0.3775,-0.3764,-0.3881,-0.388,-0.3879,0,0,-0.3493,-0.362,-0.3676,-0.3766,-0.3908,-0.3974,-0.4,-0.4137,-0.4149,-0.4201,-0.4174,-0.4201,-0.4182,-0.4138,-0.4106,-0.419,-0.4019,-0.4212,-0.4135,-0.4036,-0.4022,-0.4008,-0.3874,-0.3847,-0.419,-0.4191,-0.4191,0,-0.344,-0.3536,-0.3705,-0.3771,-0.3802,-0.3951,-0.3965,-0.4034,-0.4137,-0.412,-0.4191,-0.4183,-0.4196,-0.4096,-0.4165,-0.4206,-0.4099,-0.4065,-0.4041,-0.4025,-0.4009,-0.3874,-0.3844,-0.4195,-0.4195,-0.4194,-0.4194,0,-0.3446,-0.3509,-0.3546,-0.3658,-0.3732,-0.3775,-0.3902,-0.3955,-0.402,-0.4075,-0.4077,-0.415,-0.4107,-0.4184,-0.4198,-0.4103,-0.4051,-0.4092,-0.3968,-0.4001,-0.3861,-0.3827,-0.4203,-0.4201,-0.4199,-0.4198,0,0,-0.3283,-0.3503,-0.3489,-0.3494,-0.3655,-0.3697,-0.3735,-0.3782,-0.3739,-0.3898,-0.3818,-0.3934,-0.3987,-0.3955,-0.4006,-0.3956,-0.3863,-0.3972,-0.3965,-0.3783,-0.3578,-0.3562,-0.3522,-0.3884,-0.3878,-0.3873,-0.3535,0,-0.3182,-0.3247,-0.3386,-0.336,-0.3375,-0.3509,-0.3512,-0.3578,-0.3659,-0.3649,-0.373,-0.372,-0.3887,-0.3886,-0.3869,-0.3869,-0.3768,-0.3944,-0.3614,-0.3601,-0.3538,-0.3482,-0.3376,-0.3065,-0.3501,-0.3496,-0.3491,0,-0.3066,-0.3123,-0.3119,-0.3166,-0.3179,-0.3198,-0.3175,-0.322,-0.3271,-0.3331,-0.3355,-0.3429,-0.3409,-0.3568,-0.3465,-0.3561,-0.3533,-0.3539,-0.3527,-0.342,-0.3519,-0.3101,-0.2986,-0.299,-0.3438,-0.3442,-0.3446,0,-0.279,-0.288,-0.2852,-0.2879,-0.3005,-0.2984,-0.3028,-0.3097,-0.3116,-0.3113,-0.3129,-0.3105,-0.3127,-0.3081,-0.3217,-0.3287,-0.308,-0.3176,-0.3086,-0.3085,-0.2871,-0.2861,-0.2651,-0.2987,-0.2988,-0.2989,-0.299,0,-0.2594,-0.2551,-0.2722,-0.2706,-0.2637,-0.2776,-0.2715,-0.2775,-0.2827,-0.2828,-0.2942,-0.2925,-0.3014,-0.2987,-0.3038,-0.2966,-0.2927,-0.2978,-0.2969,-0.2912,-0.291,-0.2808,-0.2867,-0.2976,-0.2979,-0.2982,-0.2984,0,-0.2343,-0.245,-0.2428,-0.252,-0.2537,-0.2497,-0.2604,-0.258,-0.2649,-0.2644,-0.264,-0.274,-0.2711,-0.2771,-0.2706,-0.2748,-0.262,-0.2644,-0.2571,-0.256,-0.2483,-0.2553,-0.2226,-0.2164,-0.2398,-0.2395,-0.2392,0,-0.2251,-0.2217,-0.2293,-0.2295,-0.2355,-0.235,-0.2368,-0.2475,-0.2498,-0.2557,-0.2537,-0.2516,-0.2521,-0.2418,-0.2438,-0.2354,-0.2452,-0.2217,-0.2344,-0.2371,-0.2442,-0.251,-0.2489,-0.2096,-0.2091,-0.2087,-0.2084,0,-0.2072,-0.2106,-0.2123,-0.2129,-0.2144,-0.2161,-0.2206,-0.2198,-0.2324,-0.2324,-0.2328,-0.2308,-0.226,-0.2177,-0.2123,-0.2094,-0.2169,-0.2136,-0.2151,-0.2131,-0.2186,-0.2163,-0.2434,-0.2051,-0.2054,-0.2057,-0.2058,-0.206,-0.1955,-0.1933,-0.1968,-0.1959,-0.1978,-0.1975,-0.1942,-0.2017,-0.2017,-0.2038,-0.2102,-0.2066,-0.203,-0.1942,-0.1901,-0.1808,-0.1899,-0.1788,-0.1843,-0.1889,-0.19,-0.2094,-0.1755,-0.1757,-0.1758,-0.1759,-0.176,0,-0.1813,-0.1811,-0.1802,-0.1797,-0.1763,-0.1822,-0.1835,-0.1804,-0.1776,-0.1847,-0.184,-0.1816,-0.171,-0.1706,-0.1627,-0.156,-0.1542,-0.1541,-0.1589,-0.1563,-0.1672,-0.1738,-0.1396,-0.1396,-0.1396,-0.1396,-0.1397,-0.1397,-0.1743,-0.169,-0.169,-0.159,-0.1581,-0.15,-0.1477,-0.1472,-0.1501,-0.1489,-0.1525,-0.1542,-0.1557,-0.1665,-0.1557,-0.1474,-0.147,-0.1408,-0.1464,-0.1575,-0.1603,-0.1631,-0.1705,-0.1361,-0.1361,-0.1282,-0.1282,-0.1282]},{"header":{"parameterUnit":"m.s-1","parameterCategory":2,"la1":30.2991,"la2":30.254,"lo1":-89.0895,"lo2":-89.0444,"dy":0.0017,"dx":0.0017,"nx":28,"ny":28,"refTime":"2025-08-04T09:00:00:Z","depth":"0","parameterNumber":3,"parameterNumberName":"V-component_of_CURRENTS"},"data":[0,0,0,0,0,0,0,0,0,0,0,0,0,0,0,0,0,0,0,0,0,0,0,0,0,0,0,0,0,0,0,0,0,0,0,0,0,0,0,0,0,0,0,0,0,0,0,0,0,0,0,0,0,0,0,0,0,0,0.0311,0.0314,0,0.0509,0.051,0.0512,0.0597,0.0597,0.0597,0.0598,0.0691,0.0693,0.0695,0,0,0,0,0,0,0,0,0,0,0,0,0,0.0063,0.0066,0.0311,0.0314,0.0317,0.0508,0.051,0.0512,0.0597,0.0597,0.0597,0.0598,0.069,0.0693,0.0695,0,0,0,0,0,0,0,0,0,0,0,0,0,0.0199,0.0067,0.031,0.0388,0.0397,0.0508,0.0511,0.0513,0.0596,0.0597,0.0598,0.0598,0.0689,0.0692,0.0696,0.0705,0,0,0.0706,0.0707,0,0,0,0,0,0,0,0,0.0191,0.0207,0.0373,0.0383,0.0394,0.0535,0.0458,0.0575,0.0596,0.0513,0.0598,0.0598,0.0634,0.0642,0.0668,0.0709,0.0713,0.0706,0.0708,0.0709,0.071,0,0,0,0,0,0,0,0.0181,0.0199,0.0382,0.0377,0.0389,0.0433,0.0451,0.048,0.056,0.052,0.0529,0.0563,0.0637,0.0665,0.0671,0.0715,0.0706,0.0709,0.0711,0.0712,0.08,0.08,0,0,0,0,0,0,0.0169,0.019,0.0375,0.0388,0.03,0.0437,0.0458,0.0483,0.0562,0.0578,0.0562,0.0566,0.0659,0.0667,0.0674,0.0681,0.0709,0.0712,0.0714,0.0799,0.08,0.08,0,0,0,0,0,0,0.0163,0.0183,0.0368,0.03,0.0328,0.0441,0.0469,0.0487,0.0512,0.0597,0.0609,0.0569,0.066,0.067,0.0706,0.0686,0.0714,0.0717,0.0799,0.08,0.08,0.07,0,0,0,0,0,0,0.0155,0.0179,0.0173,0.0299,0.0331,0.0406,0.047,0.0491,0.0536,0.0543,0.0607,0.0617,0.0661,0.0701,0.0709,0.0691,0.0719,0.0798,0.0799,0.08,0.0703,0.0697,0.0693,0,0,0,0,0,0.0145,0.0123,0.0171,0.0194,0.0326,0.0406,0.0424,0.0503,0.0535,0.0529,0.0594,0.0615,0.0712,0.0704,0.0713,0.0695,0.0798,0.0799,0.08,0.0705,0.0698,0.0693,0,0,0,0,0,0,-0.0001,0.0135,0.0189,0.0208,0.0295,0.0422,0.0419,0.0491,0.0539,0.0535,0.0618,0.0632,0.066,0.0695,0.0685,0.0728,0.0758,0.0761,0.0683,0.0677,0.0672,0.0634,0.0722,0,0,0,0,0,-0.0029,-0.0005,0.0134,0.0145,0.0179,0.03,0.0338,0.0399,0.0475,0.0497,0.0564,0.0623,0.0673,0.0687,0.0736,0.0748,0.0766,0.0747,0.0741,0.0736,0.0715,0.0746,0.074,0.0803,0.0803,0.0803,0,0,-0.008,-0.0003,0.0011,0.0116,0.0182,0.0216,0.0319,0.0361,0.0392,0.0495,0.0532,0.0605,0.0676,0.0703,0.0717,0.0725,0.0726,0.0737,0.0732,0.0713,0.0746,0.0739,0.0734,0.0804,0.0804,0.0804,0,0,-0.0177,-0.0107,-0.012,-0.0056,0.0046,0.0128,0.0138,0.0266,0.0315,0.0378,0.0463,0.053,0.0603,0.066,0.0694,0.0687,0.0704,0.0697,0.0625,0.0656,0.065,0.0645,0.0639,0.0635,0.0685,0.0685,0.0685,0,-0.0248,-0.0222,-0.0117,-0.011,-0.0063,0.0081,0.0083,0.0151,0.0281,0.0317,0.0367,0.0512,0.0584,0.062,0.0632,0.0671,0.0674,0.0638,0.0644,0.064,0.0637,0.0633,0.0629,0.068,0.0681,0.0681,0.0682,0,-0.0334,-0.0315,-0.0325,-0.0254,-0.0204,-0.018,-0.0052,-0.0005,0.0091,0.0184,0.0262,0.0384,0.0467,0.0509,0.0571,0.0583,0.0586,0.0637,0.0648,0.0623,0.0622,0.062,0.0673,0.0675,0.0676,0.0678,0,0,-0.0466,-0.0398,-0.0398,-0.0376,-0.0269,-0.0226,-0.0198,-0.0105,-0.0079,0.0051,0.0089,0.0225,0.0308,0.0354,0.0448,0.0487,0.0486,0.0538,0.0542,0.0509,0.051,0.059,0.0596,0.0526,0.0526,0.0525,0.051,0,-0.0554,-0.0572,-0.0508,-0.0509,-0.0492,-0.0373,-0.0349,-0.0257,-0.0154,-0.0087,0.005,0.0127,0.0242,0.0287,0.0341,0.0457,0.0478,0.0483,0.0559,0.056,0.0617,0.0596,0.0645,0.0643,0.0508,0.0507,0.0507,0,-0.0634,-0.0626,-0.0653,-0.0594,-0.0581,-0.0568,-0.0486,-0.0443,-0.0333,-0.0259,-0.0169,-0.0051,0.004,0.0148,0.0283,0.0272,0.0371,0.046,0.0462,0.0568,0.0638,0.0654,0.0644,0.0806,0.0504,0.0504,0.0504,0,-0.0719,-0.071,-0.0729,-0.0708,-0.064,-0.0639,-0.0596,-0.05,-0.0456,-0.0369,-0.0325,-0.0211,-0.0123,-0.0009,0.0219,0.0227,0.0366,0.0402,0.0553,0.0558,0.0633,0.0646,0.0772,0.0475,0.0475,0.0475,0.0475,0,-0.0792,-0.0801,-0.0774,-0.0775,-0.0795,-0.0722,-0.0722,-0.0665,-0.0593,-0.0548,-0.0418,-0.0348,-0.0152,-0.0017,0.0141,0.0349,0.0305,0.0524,0.0564,0.06,0.0611,0.0785,0.0846,0.0474,0.0475,0.0475,0.0475,0,-0.0853,-0.084,-0.0856,-0.0832,-0.0829,-0.0836,-0.0791,-0.0783,-0.0711,-0.0657,-0.0632,-0.0459,-0.0283,-0.0079,0.0131,0.0276,0.0556,0.054,0.0559,0.0603,0.0873,0.0926,0.1063,0.1161,0.0644,0.0646,0.0647,0,-0.0878,-0.0897,-0.0906,-0.0923,-0.0914,-0.0915,-0.0914,-0.0847,-0.0823,-0.0697,-0.0673,-0.0497,-0.0327,-0.0008,0.0262,0.0503,0.0656,0.0691,0.0737,0.0886,0.0974,0.1012,0.1086,0.0774,0.0777,0.0779,0.0781,0,-0.0918,-0.093,-0.0944,-0.099,-0.1006,-0.1013,-0.1,-0.0998,-0.0906,-0.0832,-0.0695,-0.0559,-0.0227,0.0098,0.0431,0.0593,0.0811,0.0742,0.0899,0.1085,0.113,0.1245,0.076,0.08,0.0798,0.0796,0.0795,0.0795,-0.0944,-0.0974,-0.1006,-0.1043,-0.107,-0.109,-0.1085,-0.1044,-0.0983,-0.0819,-0.0707,-0.0425,-0.0011,0.0475,0.0653,0.104,0.0991,0.1158,0.1201,0.1219,0.1355,0.0902,0.1005,0.1004,0.1003,0.1003,0.1002,0,-0.0963,-0.0999,-0.1048,-0.1092,-0.1131,-0.1128,-0.112,-0.1068,-0.0977,-0.0761,-0.0577,-0.0048,0.0382,0.0777,0.1276,0.1487,0.1531,0.159,0.165,0.1699,0.1302,0.1355,0.1537,0.1537,0.1537,0.1537,0.1536,0.1536,-0.0972,-0.1024,-0.1054,-0.1123,-0.1156,-0.1167,-0.1154,-0.1042,-0.0871,-0.0451,-0.0096,0.017,0.0689,0.1397,0.1862,0.1908,0.2087,0.2067,0.2159,0.1888,0.1851,0.1815,0.1883,0.2173,0.2174,0.2557,0.2561,0.2564]}],[{"header":{"parameterUnit":"m.s-1","parameterCategory":2,"la1":30.2991,"la2":30.254,"lo1":-89.0895,"lo2":-89.0444,"dy":0.0017,"dx":0.0017,"nx":28,"ny":28,"refTime":"2025-08-04T09:00:00:Z","depth":"2","parameterNumber":2,"parameterNumberName":"U-component_of_CURRENTS"},"data":[0,0,0,0,0,0,0,0,0,0,0,0,0,0,0,0,0,0,0,0,0,0,0,0,0,0,0,0,0,0,0,0,0,0,0,0,0,0,0,0,0,0,0,0,0,0,0,0,0,0,0,0,0,0,0,0,0,0,-0.2283,-0.2283,0,-0.2347,-0.2348,-0.2349,-0.2281,-0.2277,-0.2274,-0.2271,-0.2392,-0.2398,-0.2405,0,0,0,0,0,0,0,0,0,0,0,0,0,-0.221,-0.2212,-0.2283,-0.2283,-0.2283,-0.2347,-0.2348,-0.235,-0.2281,-0.2277,-0.2273,-0.227,-0.239,-0.2398,-0.2405,0,0,0,0,0,0,0,0,0,0,0,0,0,-0.2261,-0.2212,-0.2283,-0.2252,-0.225,-0.2346,-0.2348,-0.235,-0.2282,-0.2277,-0.2272,-0.2268,-0.2388,-0.2397,-0.2406,-0.256,0,0,-0.2435,-0.2439,0,0,0,0,0,0,0,0,-0.2258,-0.2264,-0.2256,-0.2254,-0.2252,-0.2295,-0.2366,-0.2421,-0.2283,-0.2276,-0.2271,-0.2266,-0.2365,-0.2376,-0.2407,-0.2566,-0.2571,-0.2436,-0.2441,-0.2445,-0.2448,0,0,0,0,0,0,0,-0.2254,-0.2262,-0.2315,-0.2257,-0.2254,-0.2272,-0.2274,-0.2377,-0.2353,-0.2277,-0.227,-0.2269,-0.2364,-0.2398,-0.2409,-0.2573,-0.2435,-0.2444,-0.2449,-0.2453,-0.278,-0.2783,0,0,0,0,0,0,-0.2234,-0.2258,-0.2312,-0.2316,-0.2236,-0.2276,-0.2278,-0.2291,-0.235,-0.2352,-0.2273,-0.2265,-0.2384,-0.2398,-0.2413,-0.253,-0.2445,-0.2454,-0.2459,-0.2777,-0.2781,-0.2784,0,0,0,0,0,0,-0.2233,-0.2239,-0.231,-0.2282,-0.2291,-0.2281,-0.2297,-0.2295,-0.2334,-0.2346,-0.2349,-0.2312,-0.2381,-0.24,-0.2499,-0.2536,-0.2458,-0.2467,-0.2773,-0.2778,-0.2782,-0.2808,0,0,0,0,0,0,-0.2231,-0.2239,-0.2266,-0.2282,-0.2292,-0.2393,-0.2301,-0.2299,-0.2337,-0.2328,-0.2383,-0.2387,-0.2379,-0.2485,-0.2508,-0.2547,-0.2474,-0.2769,-0.2775,-0.2781,-0.2803,-0.2813,-0.2821,0,0,0,0,0,-0.2228,-0.2282,-0.2267,-0.2274,-0.2321,-0.2396,-0.2407,-0.2385,-0.2344,-0.2397,-0.2402,-0.2386,-0.2536,-0.2497,-0.2523,-0.2565,-0.2766,-0.2774,-0.278,-0.2799,-0.2811,-0.2821,0,0,0,0,0,0,-0.2258,-0.228,-0.2264,-0.2318,-0.2362,-0.2382,-0.2423,-0.2418,-0.2471,-0.2449,-0.2451,-0.2461,-0.2537,-0.2582,-0.2537,-0.2677,-0.2643,-0.2655,-0.2648,-0.266,-0.2668,-0.2598,-0.2482,0,0,0,0,0,-0.2281,-0.2311,-0.2349,-0.2383,-0.2418,-0.2433,-0.2464,-0.2454,-0.2486,-0.2503,-0.2522,-0.2554,-0.2597,-0.2648,-0.2685,-0.2817,-0.2759,-0.2856,-0.2865,-0.2872,-0.2835,-0.2734,-0.2727,-0.2807,-0.2807,-0.2807,0,0,-0.2287,-0.2305,-0.2317,-0.2391,-0.2416,-0.2474,-0.2442,-0.2498,-0.2529,-0.2517,-0.2574,-0.2587,-0.2632,-0.2713,-0.2758,-0.2758,-0.2842,-0.2881,-0.2886,-0.2844,-0.274,-0.2731,-0.2722,-0.2811,-0.2811,-0.281,0,0,-0.2307,-0.2353,-0.2386,-0.2446,-0.2498,-0.2522,-0.2549,-0.2594,-0.2608,-0.2679,-0.2645,-0.2669,-0.2783,-0.2785,-0.281,-0.2918,-0.2867,-0.2966,-0.2987,-0.2891,-0.2881,-0.2871,-0.2859,-0.2847,-0.2999,-0.2999,-0.2999,0,-0.2312,-0.2348,-0.2413,-0.2473,-0.249,-0.2547,-0.2581,-0.2653,-0.2708,-0.2694,-0.2691,-0.2734,-0.2788,-0.2837,-0.2871,-0.2928,-0.2891,-0.2936,-0.2892,-0.2881,-0.287,-0.2859,-0.2845,-0.3001,-0.3001,-0.3001,-0.3,0,-0.2359,-0.2394,-0.2432,-0.2499,-0.2558,-0.2606,-0.2686,-0.2738,-0.2739,-0.274,-0.2762,-0.2814,-0.2809,-0.2871,-0.2916,-0.2907,-0.2916,-0.2882,-0.2841,-0.2861,-0.2853,-0.2838,-0.3004,-0.3003,-0.3003,-0.3002,0,0,-0.2323,-0.2431,-0.2439,-0.2447,-0.256,-0.26,-0.2682,-0.2723,-0.272,-0.2776,-0.2734,-0.2832,-0.2803,-0.2832,-0.2893,-0.287,-0.2818,-0.2872,-0.2866,-0.282,-0.2658,-0.2601,-0.258,-0.2762,-0.2758,-0.2755,-0.2707,0,-0.2315,-0.2379,-0.2442,-0.2487,-0.2519,-0.2591,-0.2649,-0.2697,-0.2722,-0.2726,-0.2754,-0.2757,-0.282,-0.2821,-0.2801,-0.2806,-0.2769,-0.2837,-0.2679,-0.2676,-0.2584,-0.2555,-0.2384,-0.2318,-0.2692,-0.269,-0.2688,0,-0.2323,-0.2354,-0.2383,-0.2422,-0.2445,-0.2489,-0.2516,-0.2582,-0.2629,-0.2635,-0.2627,-0.2646,-0.268,-0.2693,-0.2654,-0.2696,-0.2665,-0.266,-0.2656,-0.2559,-0.2585,-0.2349,-0.2276,-0.2662,-0.2664,-0.2666,-0.2668,0,-0.2219,-0.23,-0.2292,-0.2324,-0.2411,-0.2411,-0.2455,-0.2513,-0.2543,-0.2572,-0.2554,-0.2563,-0.2571,-0.2516,-0.2555,-0.2581,-0.2475,-0.2491,-0.2404,-0.2405,-0.2202,-0.2188,-0.2365,-0.2365,-0.2365,-0.2365,-0.2365,0,-0.2163,-0.2161,-0.2245,-0.2249,-0.2239,-0.2328,-0.2319,-0.2373,-0.2423,-0.2429,-0.2495,-0.249,-0.2511,-0.2486,-0.2492,-0.2416,-0.2403,-0.2371,-0.2351,-0.2223,-0.2212,-0.2452,-0.2462,-0.2363,-0.2364,-0.2364,-0.2364,0,-0.2041,-0.2101,-0.2103,-0.2171,-0.2189,-0.2185,-0.2257,-0.2264,-0.2331,-0.2341,-0.2347,-0.2412,-0.2386,-0.2407,-0.2343,-0.2328,-0.2266,-0.2225,-0.2129,-0.2095,-0.229,-0.2304,-0.2114,-0.211,-0.2108,-0.2105,-0.2103,0,-0.1976,-0.1968,-0.203,-0.2033,-0.2059,-0.2082,-0.2103,-0.2198,-0.222,-0.229,-0.2283,-0.2282,-0.2257,-0.2187,-0.2138,-0.208,-0.2167,-0.1898,-0.1884,-0.2246,-0.2247,-0.2265,-0.2282,-0.1678,-0.1672,-0.1668,-0.1665,0,-0.1848,-0.1879,-0.189,-0.1903,-0.1922,-0.1941,-0.1985,-0.1991,-0.2101,-0.2114,-0.2123,-0.21,-0.2054,-0.1916,-0.1859,-0.181,-0.1901,-0.1807,-0.2123,-0.1773,-0.183,-0.1834,-0.1865,-0.1626,-0.163,-0.1633,-0.1635,-0.1636,-0.1751,-0.1733,-0.1762,-0.176,-0.1785,-0.1787,-0.176,-0.1824,-0.1831,-0.1837,-0.1912,-0.1834,-0.1825,-0.1636,-0.1555,-0.1502,-0.1636,-0.1577,-0.1591,-0.161,-0.1573,-0.162,-0.1377,-0.1379,-0.1381,-0.1383,-0.1384,0,-0.1624,-0.1624,-0.162,-0.162,-0.1595,-0.1652,-0.1668,-0.1624,-0.1589,-0.1616,-0.1597,-0.1429,-0.1334,-0.1334,-0.1182,-0.1159,-0.1157,-0.1119,-0.1119,-0.1157,-0.1191,-0.1134,-0.0821,-0.0819,-0.0818,-0.0817,0,0,-0.1561,-0.1514,-0.1514,-0.143,-0.1427,-0.1353,-0.1331,-0.1287,-0.127,-0.1188,-0.1153,-0.1254,-0.1276,-0.1054,-0.0999,-0.088,-0.1007,-0.0831,-0.1279,-0.1314,-0.1346,-0.1445,-0.1398,0,0,0,0,0]},{"header":{"parameterUnit":"m.s-1","parameterCategory":2,"la1":30.2991,"la2":30.254,"lo1":-89.0895,"lo2":-89.0444,"dy":0.0017,"dx":0.0017,"nx":28,"ny":28,"refTime":"2025-08-04T09:00:00:Z","depth":"2","parameterNumber":3,"parameterNumberName":"V-component_of_CURRENTS"},"data":[0,0,0,0,0,0,0,0,0,0,0,0,0,0,0,0,0,0,0,0,0,0,0,0,0,0,0,0,0,0,0,0,0,0,0,0,0,0,0,0,0,0,0,0,0,0,0,0,0,0,0,0,0,0,0,0,0,0,-0.0346,-0.0347,0,-0.0332,-0.0331,-0.0331,-0.0302,-0.0302,-0.0302,-0.0302,-0.0055,-0.0048,-0.0042,0,0,0,0,0,0,0,0,0,0,0,0,0,-0.0304,-0.0305,-0.0346,-0.0347,-0.0347,-0.0332,-0.0331,-0.0331,-0.0302,-0.0302,-0.0302,-0.0302,-0.0057,-0.0049,-0.0041,0,0,0,0,0,0,0,0,0,0,0,0,0,-0.0305,-0.0305,-0.0346,-0.0335,-0.0334,-0.0332,-0.0331,-0.033,-0.0302,-0.0302,-0.0302,-0.0302,-0.0059,-0.005,-0.004,0.0017,0,0,-0.001,-0.0006,0,0,0,0,0,0,0,0,-0.0305,-0.0305,-0.0336,-0.0335,-0.0335,-0.0323,-0.0226,-0.0204,-0.0302,-0.0309,-0.0302,-0.0302,-0.0126,-0.0111,-0.0105,0.0028,0.0039,-0.001,-0.0004,0.0001,0.0003,0,0,0,0,0,0,0,-0.0305,-0.0306,-0.0335,-0.0336,-0.0336,-0.0315,-0.0315,-0.0222,-0.021,-0.0308,-0.0308,-0.0314,-0.0123,-0.0115,-0.0098,0.0043,-0.001,-0.0001,0.0005,0.0009,0.0332,0.0334,0,0,0,0,0,0,-0.0319,-0.0306,-0.0336,-0.0336,-0.0325,-0.0316,-0.0316,-0.0323,-0.0216,-0.0203,-0.0314,-0.0313,-0.0131,-0.011,-0.0089,0.0013,0.0,0.001,0.0015,0.0329,0.0332,0.0335,0,0,0,0,0,0,-0.0318,-0.0322,-0.0337,-0.0324,-0.0325,-0.0318,-0.0326,-0.0323,-0.0313,-0.0224,-0.0206,-0.0308,-0.013,-0.0103,-0.0012,0.0022,0.0014,0.0023,0.0326,0.033,0.0334,0.0201,0,0,0,0,0,0,-0.0317,-0.0322,-0.0327,-0.0325,-0.0327,-0.0331,-0.0326,-0.0323,-0.032,-0.0317,-0.0212,-0.019,-0.0128,-0.0027,-0.0002,0.0035,0.003,0.0322,0.0328,0.0332,0.0202,0.02,0.0198,0,0,0,0,0,-0.0316,-0.0338,-0.0328,-0.0331,-0.0336,-0.0332,-0.0329,-0.032,-0.032,-0.0311,-0.0248,-0.0193,0.0025,-0.0019,0.001,0.0052,0.032,0.0326,0.0332,0.0202,0.02,0.0198,0,0,0,0,0,0,-0.0335,-0.0337,-0.0326,-0.035,-0.0336,-0.0329,-0.0332,-0.0322,-0.0272,-0.0266,-0.018,-0.0153,-0.007,0.0027,-0.0023,0.017,0.0193,0.0205,0.0085,0.0084,0.0082,0.0038,0.0039,0,0,0,0,0,-0.0339,-0.0351,-0.034,-0.0359,-0.0353,-0.0338,-0.0336,-0.0328,-0.0291,-0.0272,-0.0205,-0.0105,-0.002,0.0055,0.0131,0.0244,0.0282,0.0304,0.0302,0.0299,0.029,0.0332,0.033,0.0355,0.0355,0.0355,0,0,-0.0358,-0.0359,-0.0368,-0.0362,-0.0353,-0.035,-0.0335,-0.0337,-0.0325,-0.0245,-0.0202,-0.0133,-0.0001,0.0092,0.0149,0.0183,0.0321,0.0307,0.0303,0.0295,0.0338,0.0334,0.0331,0.036,0.0359,0.0358,0,0,-0.0404,-0.0393,-0.0414,-0.0398,-0.0387,-0.0367,-0.0367,-0.0349,-0.0327,-0.0287,-0.0222,-0.0144,-0.0007,0.0088,0.0158,0.0211,0.0276,0.0272,0.0262,0.0302,0.0297,0.0294,0.0344,0.0347,0.0309,0.0309,0.0309,0,-0.0425,-0.0443,-0.0418,-0.0426,-0.0418,-0.0376,-0.0384,-0.0353,-0.0309,-0.0282,-0.0284,-0.0114,-0.0017,0.0119,0.0136,0.02,0.0235,0.024,0.0289,0.0287,0.0286,0.0338,0.0342,0.0304,0.0304,0.0305,0.0305,0,-0.0477,-0.0483,-0.0493,-0.048,-0.0464,-0.0463,-0.0417,-0.039,-0.0369,-0.0337,-0.0251,-0.0147,-0.0035,0.0026,0.0092,0.0182,0.0211,0.0235,0.0265,0.0273,0.0331,0.0337,0.0295,0.0297,0.0299,0.0301,0,0,-0.0548,-0.0533,-0.0535,-0.0528,-0.0488,-0.0481,-0.0449,-0.0401,-0.0379,-0.0327,-0.0292,-0.0153,-0.0107,-0.0021,0.0091,0.0151,0.0171,0.0196,0.0201,0.0195,0.0263,0.0292,0.0303,0.0188,0.0189,0.0189,0.0305,0,-0.0592,-0.0617,-0.0591,-0.0595,-0.0595,-0.0534,-0.0507,-0.0454,-0.0407,-0.0358,-0.0245,-0.0174,-0.0111,-0.0055,0.0007,0.0127,0.0182,0.0138,0.0302,0.0308,0.0289,0.0309,0.0279,0.0379,0.0312,0.0313,0.0313,0,-0.0647,-0.0651,-0.0671,-0.0638,-0.0632,-0.0624,-0.0563,-0.0532,-0.0438,-0.0404,-0.0319,-0.024,-0.0109,-0.0088,0.0088,0.0054,0.0143,0.022,0.0226,0.03,0.0348,0.0369,0.0394,0.0325,0.0324,0.0323,0.0322,0,-0.0702,-0.07,-0.0714,-0.0705,-0.0667,-0.0658,-0.0629,-0.0553,-0.052,-0.0425,-0.0401,-0.026,-0.0186,-0.0074,0.0092,0.0086,0.0253,0.0271,0.0383,0.0388,0.042,0.0426,0.036,0.036,0.0359,0.0359,0.0359,0,-0.075,-0.0759,-0.0743,-0.075,-0.0758,-0.0711,-0.0698,-0.065,-0.058,-0.0538,-0.0425,-0.0358,-0.019,-0.0063,0.0071,0.0252,0.0241,0.0376,0.0416,0.038,0.0381,0.0382,0.0383,0.0363,0.0362,0.0362,0.0361,0,-0.0804,-0.0795,-0.0811,-0.0791,-0.0788,-0.0793,-0.0757,-0.0741,-0.0669,-0.0613,-0.0585,-0.043,-0.0261,-0.0081,0.0123,0.0233,0.0399,0.0464,0.0417,0.0448,0.0512,0.0506,0.0595,0.0597,0.0599,0.06,0.0602,0,-0.0828,-0.0846,-0.0855,-0.0872,-0.0867,-0.0866,-0.0864,-0.0798,-0.0773,-0.0645,-0.062,-0.0448,-0.0305,0.0006,0.0221,0.0458,0.0458,0.0561,0.0543,0.0504,0.0535,0.0526,0.0518,0.0547,0.0548,0.0548,0.0548,0,-0.087,-0.0879,-0.0893,-0.0937,-0.0952,-0.0957,-0.0944,-0.0937,-0.0847,-0.0773,-0.0642,-0.0517,-0.0219,0.0039,0.0332,0.0465,0.0517,0.0579,0.0558,0.0484,0.0466,0.0493,0.0485,0.0553,0.0552,0.0552,0.0552,0.0552,-0.0896,-0.0925,-0.0955,-0.099,-0.1015,-0.1032,-0.1029,-0.099,-0.0931,-0.0792,-0.0671,-0.0452,-0.0215,0.0208,0.0411,0.0592,0.0593,0.0641,0.0637,0.0632,0.0598,0.0583,0.0687,0.0687,0.0687,0.0687,0.0688,0,-0.092,-0.0953,-0.0999,-0.1041,-0.1078,-0.1074,-0.1064,-0.103,-0.0951,-0.0791,-0.0627,-0.0351,-0.0046,0.0197,0.0489,0.0665,0.0643,0.0687,0.0623,0.0618,0.0614,0.0575,0.066,0.066,0.066,0.0661,0,0,-0.0931,-0.0981,-0.1008,-0.1076,-0.1108,-0.1123,-0.1113,-0.1036,-0.0918,-0.0753,-0.0576,-0.0328,-0.0034,0.0167,0.0384,0.0531,0.0526,0.0541,0.0546,0.044,0.0434,0.0573,0.0508,0,0,0,0,0]}],[{"header":{"parameterUnit":"m.s-1","parameterCategory":2,"la1":30.2991,"la2":30.254,"lo1":-89.0895,"lo2":-89.0444,"dy":0.0017,"dx":0.0017,"nx":28,"ny":28,"refTime":"2025-08-04T09:00:00:Z","depth":"4","parameterNumber":2,"parameterNumberName":"U-component_of_CURRENTS"},"data":[0,0,0,0,0,0,0,0,0,0,0,0,0,0,0,0,0,0,0,0,0,0,0,0,0,0,0,0,0,0,0,0,0,0,0,0,0,0,0,0,0,0,0,0,0,0,0,0,0,0,0,0,0,0,0,0,0,0,-0.1419,-0.142,0,-0.1452,-0.1452,-0.1452,-0.1442,-0.1441,-0.1441,-0.1441,-0.1443,-0.1444,-0.1444,0,0,0,0,0,0,0,0,0,0,0,0,0,-0.1382,-0.1382,-0.1419,-0.142,-0.142,-0.1452,-0.1452,-0.1452,-0.1442,-0.1441,-0.1441,-0.144,-0.1443,-0.1444,-0.1444,0,0,0,0,0,0,0,0,0,0,0,0,0,-0.1402,-0.1382,-0.1419,-0.1421,-0.1421,-0.1452,-0.1452,-0.1452,-0.1442,-0.1441,-0.1441,-0.144,-0.1443,-0.1444,-0.1444,-0.1463,0,0,-0.1447,-0.1447,0,0,0,0,0,0,0,0,-0.1401,-0.1403,-0.142,-0.1421,-0.1422,-0.1444,-0.144,-0.1455,-0.1442,-0.1432,-0.1441,-0.144,-0.1443,-0.1444,-0.1448,-0.1463,-0.1463,-0.1447,-0.1447,-0.1447,-0.1448,0,0,0,0,0,0,0,-0.1399,-0.1402,-0.143,-0.1421,-0.1422,-0.1432,-0.1433,-0.1443,-0.1438,-0.1433,-0.1433,-0.144,-0.1443,-0.1448,-0.1448,-0.1463,-0.1447,-0.1447,-0.1448,-0.1448,-0.1548,-0.155,0,0,0,0,0,0,-0.1399,-0.14,-0.1429,-0.1431,-0.1412,-0.1433,-0.1435,-0.1436,-0.1439,-0.144,-0.1441,-0.144,-0.1447,-0.1447,-0.1448,-0.1497,-0.1447,-0.1448,-0.1449,-0.1546,-0.1548,-0.1551,0,0,0,0,0,0,-0.1398,-0.1401,-0.1427,-0.1419,-0.1423,-0.1434,-0.1436,-0.1437,-0.1459,-0.1446,-0.1445,-0.1464,-0.1446,-0.1447,-0.1475,-0.1496,-0.1449,-0.1449,-0.1543,-0.1546,-0.1549,-0.1577,0,0,0,0,0,0,-0.1397,-0.14,-0.1412,-0.1418,-0.1424,-0.1452,-0.1437,-0.1438,-0.1465,-0.1464,-0.1466,-0.1464,-0.1446,-0.1474,-0.1476,-0.1496,-0.145,-0.154,-0.1545,-0.1548,-0.1574,-0.1581,-0.1587,0,0,0,0,0,-0.1395,-0.1415,-0.1412,-0.1417,-0.1435,-0.1454,-0.1457,-0.1461,-0.1467,-0.1479,-0.1487,-0.1465,-0.1502,-0.1477,-0.1478,-0.1499,-0.1538,-0.1543,-0.1548,-0.157,-0.158,-0.1587,0,0,0,0,0,0,-0.1411,-0.1416,-0.1413,-0.1435,-0.1446,-0.1453,-0.1478,-0.148,-0.1497,-0.1506,-0.1489,-0.1489,-0.1525,-0.1518,-0.1491,-0.1545,-0.1519,-0.1524,-0.1535,-0.1544,-0.1551,-0.1549,-0.145,0,0,0,0,0,-0.1418,-0.1433,-0.1437,-0.1458,-0.1469,-0.1479,-0.1494,-0.1495,-0.1508,-0.1516,-0.1518,-0.1531,-0.1546,-0.1549,-0.1564,-0.1588,-0.1584,-0.1608,-0.1615,-0.162,-0.1624,-0.163,-0.1636,-0.1567,-0.1567,-0.1567,0,0,-0.1434,-0.1439,-0.1449,-0.1463,-0.1478,-0.1497,-0.1486,-0.1518,-0.1531,-0.1515,-0.1549,-0.1561,-0.1564,-0.1591,-0.1606,-0.1584,-0.1644,-0.1626,-0.1631,-0.1631,-0.1635,-0.1641,-0.1647,-0.157,-0.157,-0.1569,0,0,-0.1466,-0.1476,-0.1496,-0.1508,-0.1531,-0.1534,-0.1548,-0.1566,-0.1573,-0.1605,-0.1602,-0.1617,-0.1651,-0.1637,-0.1639,-0.1696,-0.1688,-0.1724,-0.1742,-0.1748,-0.1753,-0.1757,-0.1774,-0.1779,-0.1716,-0.1716,-0.1716,0,-0.1486,-0.15,-0.1507,-0.1528,-0.1543,-0.1554,-0.1576,-0.1589,-0.1612,-0.1623,-0.1623,-0.1674,-0.1662,-0.1683,-0.1701,-0.1705,-0.1727,-0.1702,-0.1754,-0.1758,-0.1761,-0.1777,-0.1783,-0.1718,-0.1718,-0.1718,-0.1718,0,-0.1518,-0.1539,-0.156,-0.158,-0.1598,-0.1625,-0.1635,-0.166,-0.1677,-0.1683,-0.1724,-0.1717,-0.1739,-0.1745,-0.1737,-0.1769,-0.1785,-0.1766,-0.1722,-0.1769,-0.1785,-0.179,-0.1721,-0.172,-0.172,-0.1719,0,0,-0.1533,-0.1572,-0.1582,-0.1597,-0.1625,-0.1643,-0.1675,-0.1697,-0.1731,-0.1747,-0.1785,-0.179,-0.1797,-0.1801,-0.1797,-0.1796,-0.1828,-0.1803,-0.1803,-0.1803,-0.1875,-0.1722,-0.1713,-0.1833,-0.1834,-0.1835,-0.1879,0,-0.1555,-0.1594,-0.1609,-0.1654,-0.1672,-0.1693,-0.1725,-0.1749,-0.1774,-0.1818,-0.1808,-0.1848,-0.1816,-0.1841,-0.1835,-0.1843,-0.1844,-0.182,-0.1845,-0.1845,-0.1688,-0.1712,-0.1837,-0.1882,-0.1883,-0.1884,-0.1885,0,-0.1566,-0.1591,-0.1631,-0.1681,-0.1696,-0.1731,-0.1784,-0.1814,-0.1863,-0.1887,-0.1913,-0.1925,-0.1932,-0.1903,-0.1909,-0.1911,-0.1899,-0.1891,-0.1892,-0.1739,-0.17,-0.1825,-0.1893,-0.1893,-0.1892,-0.1892,-0.1891,0,-0.1538,-0.1604,-0.1634,-0.165,-0.171,-0.1744,-0.1785,-0.1838,-0.1862,-0.1937,-0.1966,-0.1992,-0.2001,-0.2001,-0.1956,-0.1961,-0.1964,-0.1955,-0.1806,-0.1797,-0.1908,-0.1903,-0.1957,-0.1957,-0.1956,-0.1956,-0.1956,0,-0.1516,-0.1548,-0.1635,-0.1645,-0.1697,-0.1753,-0.181,-0.1856,-0.1926,-0.1947,-0.2001,-0.2006,-0.203,-0.202,-0.1997,-0.19,-0.1984,-0.181,-0.1789,-0.1924,-0.192,-0.1913,-0.1907,-0.1958,-0.1958,-0.1957,-0.1957,0,-0.1444,-0.1506,-0.1547,-0.1639,-0.1673,-0.1709,-0.1798,-0.1835,-0.1921,-0.1953,-0.1976,-0.2026,-0.2006,-0.2002,-0.1994,-0.1913,-0.1862,-0.1807,-0.1963,-0.1951,-0.1697,-0.1693,-0.1668,-0.1663,-0.1658,-0.1654,-0.1651,0,-0.1393,-0.1412,-0.1521,-0.1548,-0.1588,-0.1659,-0.1699,-0.1805,-0.1833,-0.1926,-0.1923,-0.1951,-0.1955,-0.1823,-0.1845,-0.179,-0.1751,-0.1736,-0.1702,-0.1681,-0.1664,-0.1667,-0.1669,-0.1644,-0.1643,-0.1642,-0.1641,0,-0.1294,-0.1356,-0.1389,-0.145,-0.1505,-0.155,-0.162,-0.1629,-0.1737,-0.1836,-0.1803,-0.1777,-0.1749,-0.1718,-0.1676,-0.1635,-0.1756,-0.1689,-0.1698,-0.1666,-0.1652,-0.1641,-0.1648,-0.1625,-0.1628,-0.1629,-0.163,0,-0.1224,-0.1229,-0.1295,-0.133,-0.1397,-0.1411,-0.1468,-0.1496,-0.1537,-0.1651,-0.1632,-0.1661,-0.1725,-0.1636,-0.1599,-0.1541,-0.1517,-0.1471,-0.1491,-0.1508,-0.1427,-0.1384,-0.1251,0,0,0,0,0,-0.1143,-0.1139,-0.1168,-0.1205,-0.1267,-0.1302,-0.1397,-0.1461,-0.1573,-0.1501,-0.1561,-0.1523,-0.1463,-0.1486,-0.1387,-0.1523,-0.1525,-0.1404,-0.1484,-0.154,-0.1558,-0.1472,0,0,0,0,0,0,-0.1091,-0.1115,-0.1123,-0.109,-0.1091,-0.1144,-0.1196,-0.1279,-0.125,-0.1365,-0.1335,-0.1421,-0.1381,-0.148,-0.1349,-0.1354,-0.1371,-0.1434,-0.1429,-0.153,-0.1546,-0.1561,-0.1478,0,0,0,0,0]},{"header":{"parameterUnit":"m.s-1","parameterCategory":2,"la1":30.2991,"la2":30.254,"lo1":-89.0895,"lo2":-89.0444,"dy":0.0017,"dx":0.0017,"nx":28,"ny":28,"refTime":"2025-08-04T09:00:00:Z","depth":"4","parameterNumber":3,"parameterNumberName":"V-component_of_CURRENTS"},"data":[0,0,0,0,0,0,0,0,0,0,0,0,0,0,0,0,0,0,0,0,0,0,0,0,0,0,0,0,0,0,0,0,0,0,0,0,0,0,0,0,0,0,0,0,0,0,0,0,0,0,0,0,0,0,0,0,0,0,-0.0336,-0.0336,0,-0.0354,-0.0355,-0.0355,-0.0343,-0.0343,-0.0342,-0.0341,-0.0315,-0.0315,-0.0315,0,0,0,0,0,0,0,0,0,0,0,0,0,-0.0286,-0.0288,-0.0336,-0.0336,-0.0336,-0.0354,-0.0355,-0.0355,-0.0343,-0.0343,-0.0342,-0.0341,-0.0315,-0.0315,-0.0315,0,0,0,0,0,0,0,0,0,0,0,0,0,-0.0309,-0.0288,-0.0336,-0.0331,-0.033,-0.0354,-0.0355,-0.0355,-0.0344,-0.0342,-0.0341,-0.034,-0.0315,-0.0315,-0.0315,-0.034,0,0,-0.0316,-0.0316,0,0,0,0,0,0,0,0,-0.0308,-0.0311,-0.0332,-0.0331,-0.0331,-0.0343,-0.0328,-0.0347,-0.0344,-0.0341,-0.0341,-0.034,-0.032,-0.0319,-0.033,-0.0338,-0.0337,-0.0316,-0.0316,-0.0316,-0.0316,0,0,0,0,0,0,0,-0.0306,-0.031,-0.0346,-0.0332,-0.0331,-0.0325,-0.0327,-0.0332,-0.0338,-0.0341,-0.034,-0.0338,-0.0319,-0.033,-0.0329,-0.0337,-0.0316,-0.0316,-0.0316,-0.0316,-0.0348,-0.0349,0,0,0,0,0,0,-0.0301,-0.0309,-0.0346,-0.0346,-0.0313,-0.0327,-0.033,-0.0342,-0.0339,-0.0337,-0.0339,-0.0338,-0.033,-0.0329,-0.0328,-0.0329,-0.0316,-0.0316,-0.0316,-0.0347,-0.0348,-0.0349,0,0,0,0,0,0,-0.03,-0.0305,-0.0345,-0.0325,-0.0329,-0.0329,-0.0343,-0.0343,-0.0353,-0.0337,-0.0335,-0.0348,-0.0329,-0.0328,-0.0333,-0.0329,-0.0316,-0.0316,-0.0346,-0.0348,-0.0349,-0.0349,0,0,0,0,0,0,-0.0299,-0.0305,-0.0317,-0.0325,-0.033,-0.0364,-0.0344,-0.0344,-0.0352,-0.0351,-0.0344,-0.0341,-0.0328,-0.0333,-0.0333,-0.0329,-0.0316,-0.0345,-0.0347,-0.0348,-0.0348,-0.035,-0.0352,0,0,0,0,0,-0.0297,-0.0319,-0.0318,-0.0322,-0.0346,-0.0364,-0.0368,-0.0364,-0.0354,-0.0367,-0.0358,-0.0341,-0.0342,-0.0334,-0.0333,-0.0329,-0.0345,-0.0347,-0.0348,-0.0347,-0.035,-0.0352,0,0,0,0,0,0,-0.0307,-0.032,-0.0319,-0.0344,-0.0354,-0.0361,-0.0371,-0.037,-0.0377,-0.0373,-0.0355,-0.0351,-0.0355,-0.0351,-0.0342,-0.0346,-0.034,-0.0342,-0.0339,-0.0342,-0.0344,-0.0321,-0.0316,0,0,0,0,0,-0.0315,-0.0333,-0.0341,-0.0363,-0.0367,-0.0372,-0.0379,-0.038,-0.0383,-0.0385,-0.038,-0.0373,-0.0365,-0.0359,-0.0362,-0.0366,-0.0319,-0.0365,-0.0366,-0.0368,-0.0352,-0.0274,-0.0266,-0.0355,-0.0355,-0.0355,0,0,-0.0326,-0.0333,-0.0345,-0.0366,-0.0372,-0.0385,-0.0374,-0.0391,-0.04,-0.0381,-0.0395,-0.0386,-0.0371,-0.0373,-0.0373,-0.0365,-0.0322,-0.037,-0.0371,-0.0354,-0.0275,-0.0265,-0.0257,-0.0357,-0.0356,-0.0356,0,0,-0.0353,-0.0363,-0.0384,-0.0391,-0.0402,-0.0404,-0.0409,-0.0423,-0.0425,-0.0443,-0.042,-0.0404,-0.0419,-0.0387,-0.0375,-0.0392,-0.034,-0.0404,-0.0385,-0.031,-0.0301,-0.0292,-0.0226,-0.0212,-0.0397,-0.0397,-0.0397,0,-0.0366,-0.039,-0.0394,-0.0409,-0.0411,-0.0411,-0.0427,-0.0435,-0.045,-0.0437,-0.0451,-0.0421,-0.0418,-0.037,-0.038,-0.0391,-0.0343,-0.0373,-0.0308,-0.0299,-0.0289,-0.0224,-0.0207,-0.0397,-0.0397,-0.0397,-0.0397,0,-0.0402,-0.0419,-0.043,-0.0446,-0.0451,-0.0467,-0.0468,-0.0475,-0.0478,-0.047,-0.0445,-0.0432,-0.0399,-0.0404,-0.04,-0.0334,-0.032,-0.0321,-0.0292,-0.0279,-0.0213,-0.0195,-0.0398,-0.0398,-0.0398,-0.0398,0,0,-0.0442,-0.0453,-0.0459,-0.0462,-0.0468,-0.0478,-0.0482,-0.0473,-0.0457,-0.0463,-0.0424,-0.0413,-0.0383,-0.0367,-0.0346,-0.0288,-0.0198,-0.028,-0.0276,-0.0197,-0.0027,-0.0073,-0.0058,-0.018,-0.0177,-0.0174,-0.0007,0,-0.047,-0.05,-0.0494,-0.0515,-0.0527,-0.0508,-0.0508,-0.0495,-0.048,-0.0448,-0.0399,-0.0372,-0.0374,-0.0353,-0.029,-0.0228,-0.0152,-0.0243,-0.0066,-0.0061,-0.0088,-0.004,-0.0165,0.0006,0.001,0.0013,0.0015,0,-0.0509,-0.052,-0.0547,-0.0536,-0.0538,-0.0548,-0.0519,-0.0518,-0.0458,-0.044,-0.0375,-0.034,-0.0255,-0.0267,-0.0108,-0.0165,-0.009,-0.0038,-0.003,-0.0055,-0.0074,-0.001,0.0047,0.0044,0.0042,0.004,0.0038,0,-0.0539,-0.0554,-0.0573,-0.0574,-0.0568,-0.0567,-0.0559,-0.0517,-0.0505,-0.0425,-0.0398,-0.0284,-0.0244,-0.0121,-0.0036,-0.0055,0.0138,0.0128,0.0172,0.0169,0.0162,0.0151,0.027,0.0269,0.0269,0.0269,0.0268,0,-0.0567,-0.0583,-0.0593,-0.0606,-0.062,-0.0597,-0.0593,-0.0564,-0.0509,-0.048,-0.0395,-0.0344,-0.0207,-0.0096,0.0003,0.0134,0.018,0.0198,0.0219,0.0153,0.0139,0.0175,0.0161,0.0275,0.0273,0.0272,0.0271,0,-0.0597,-0.0605,-0.0632,-0.0636,-0.0642,-0.0654,-0.0643,-0.0629,-0.0573,-0.0525,-0.0501,-0.0376,-0.0232,-0.0091,0.0101,0.0161,0.0301,0.034,0.0264,0.0273,0.0281,0.0265,0.0432,0.0432,0.0432,0.0432,0.0432,0,-0.061,-0.0631,-0.0668,-0.0694,-0.0702,-0.0716,-0.0723,-0.0677,-0.0655,-0.055,-0.0523,-0.038,-0.0287,-0.0028,0.0105,0.0323,0.0331,0.0409,0.0349,0.03,0.0303,0.0287,0.0272,0.0432,0.0432,0.0432,0.0432,0,-0.0631,-0.0656,-0.068,-0.0739,-0.0767,-0.0784,-0.0784,-0.0772,-0.0702,-0.0654,-0.052,-0.0379,-0.0218,-0.0033,0.0127,0.0274,0.0361,0.0409,0.041,0.0354,0.0301,0.0301,0.0286,0.0432,0.0432,0.0432,0.0432,0,-0.0648,-0.0678,-0.0724,-0.0766,-0.0813,-0.0832,-0.0827,-0.0778,-0.074,-0.0613,-0.0573,-0.038,-0.0266,-0.0057,0.0093,0.0228,0.0256,0.0285,0.0293,0.0295,0.018,0.0088,0.0196,0,0,0,0,0,-0.0654,-0.069,-0.0741,-0.079,-0.0839,-0.0859,-0.0855,-0.0834,-0.0771,-0.0681,-0.0618,-0.0458,-0.0219,-0.0108,0.0024,0.0067,0.0256,0.0222,0.0288,0.0432,0.0432,0.0313,0,0,0,0,0,0,-0.0659,-0.0714,-0.074,-0.0798,-0.0836,-0.0875,-0.0875,-0.0833,-0.0765,-0.0684,-0.0549,-0.0452,-0.0217,-0.0295,0.0019,0.0061,0.0114,0.0345,0.0347,0.0432,0.0432,0.0432,0.0309,0,0,0,0,0]}]]